2021-091C (49317 NORAD) Tracking and Keplerian Element Data

This shows tracking and keplerian element data for the satellite.

Feedback or suggestion? Click here.




ElementValue
Catalog49317
Name2021-091C
Epoch Orbit798
Epoch Day340.13576924
Epoch Year2021
RAAN165.167
Inclination97.4586
Eccentricity0.0017612
Argument of Perigee82.0092
Mean Anonmoly51.6552
Mean Motion15.17683581
Decay Rate1.604E-05
L11 49317U 21091C 21340.13576924 .00001604 00000+0 82711-4 0 9997
L22 49317 97.4586 165.1670 0017612 82.0092 51.6552 15.17683581 7982

Live tracking and technical data element details for 2021-091C (NORAD 49317). 2021-091C can be tracked NOW for your location showing map with azimuth and elevation plus other details from your city location.

Track the satellite on the map from your city or location and see movement details for azimuth, elevation, latitude, longitude, range, height, and movement on the map or in text.







IsCatalogInMostPopularTable: catalog: 49317, numindb: 7
Update: records affected: 1



GetName: 49317 2021-091C

Hit Count: updated at: Mon, 06 Dec 2021 15:40:57 GMT